| time (UTC) | temp F | wind direction | speed MPH | gust MPH | rain 1hr in | rain 24hr in | rain mn in | humidity % | barometer mb |
| 20260507020002 | 62 | 56 | 4.0 | 13.0 | 0.00 | 0.07 | 0.07 | 70 | 994.8 |
| 20260507014602 | 62 | 23 | 3.0 | 10.0 | 0.00 | 0.07 | 0.07 | 70 | 994.5 |
| 20260507013100 | 62 | 6 | 3.0 | 10.0 | 0.00 | 0.07 | 0.07 | 70 | 994.0 |
| 20260507011600 | 62 | 360 | 4.0 | 8.0 | 0.00 | 0.07 | 0.07 | 70 | 993.6 |
| 20260507010111 | 62 | 359 | 3.0 | 10.0 | 0.00 | 0.07 | 0.07 | 70 | 993.5 |
| 20260507004559 | 63 | 1 | 2.0 | 8.0 | 0.00 | 0.07 | 0.07 | 69 | 993.4 |
| 20260507003058 | 63 | 360 | 2.0 | 8.0 | 0.00 | 0.07 | 0.07 | 70 | 993.3 |
| 20260507001608 | 63 | 23 | 3.0 | 9.0 | 0.00 | 0.07 | 0.07 | 70 | 993.2 |
| 20260507000057 | 64 | 316 | 4.0 | 8.0 | 0.00 | 0.07 | 0.07 | 69 | 992.9 |
| 20260506234559 | 64 | 359 | 2.0 | 6.0 | 0.00 | 0.07 | 0.07 | 69 | 992.7 |
| 20260506233059 | 64 | 2 | 4.0 | 9.0 | 0.00 | 0.07 | 0.07 | 69 | 992.6 |
| 20260506231609 | 65 | 48 | 1.0 | 11.0 | 0.00 | 0.07 | 0.07 | 68 | 992.3 |
| 20260506230110 | 65 | 359 | 0.0 | 6.0 | 0.00 | 0.07 | 0.07 | 69 | 992.3 |
| 20260506224553 | 65 | 16 | 2.0 | 7.0 | 0.00 | 0.07 | 0.07 | 69 | 992.2 |
| 20260506223051 | 64 | 39 | 3.0 | 8.0 | 0.00 | 0.07 | 0.07 | 69 | 992.2 |
| 20260506221609 | 64 | 1 | 4.0 | 8.0 | 0.00 | 0.07 | 0.07 | 69 | 992.0 |
| 20260506220104 | 64 | 37 | 3.0 | 6.0 | 0.00 | 0.07 | 0.07 | 69 | 992.2 |
| 20260506214548 | 63 | 1 | 1.0 | 5.0 | 0.00 | 0.07 | 0.07 | 70 | 992.3 |
| 20260506213100 | 63 | 288 | 0.0 | 8.0 | 0.00 | 0.07 | 0.07 | 71 | 992.1 |
| 20260506211540 | 62 | 359 | 2.0 | 6.0 | 0.00 | 0.07 | 0.07 | 70 | 992.4 |
| 20260506210046 | 62 | 5 | 3.0 | 8.0 | 0.00 | 0.07 | 0.07 | 69 | 992.5 |
| 20260506204537 | 62 | 46 | 3.0 | 9.0 | 0.00 | 0.07 | 0.07 | 70 | 992.5 |
| 20260506203034 | 62 | 23 | 2.0 | 6.0 | 0.00 | 0.07 | 0.07 | 69 | 992.7 |
| 20260506201538 | 61 | 27 | 1.0 | 9.0 | 0.00 | 0.07 | 0.07 | 71 | 992.6 |
| 20260506200031 | 61 | 15 | 2.0 | 5.0 | 0.00 | 0.07 | 0.07 | 72 | 993.1 |
| 20260506194530 | 60 | 11 | 2.0 | 7.0 | 0.00 | 0.07 | 0.07 | 72 | 993.3 |
| 20260506193029 | 59 | 12 | 2.0 | 8.0 | 0.00 | 0.07 | 0.07 | 73 | 993.7 |
| 20260506191530 | 59 | 19 | 2.0 | 6.0 | 0.00 | 0.07 | 0.07 | 73 | 993.4 |
| 20260506190031 | 59 | 360 | 0.0 | 7.0 | 0.00 | 0.07 | 0.07 | 74 | 993.5 |
| 20260506184531 | 58 | 40 | 2.0 | 8.0 | 0.00 | 0.07 | 0.07 | 75 | 993.4 |
| 20260506183034 | 58 | 11 | 4.0 | 10.0 | 0.00 | 0.07 | 0.07 | 75 | 992.0 |
| 20260506181527 | 58 | 33 | 3.0 | 9.0 | 0.00 | 0.07 | 0.07 | 76 | 992.1 |
| 20260506180031 | 57 | 96 | 3.0 | 13.0 | 0.00 | 0.07 | 0.07 | 78 | 992.8 |
| 20260506174528 | 56 | 23 | 2.0 | 9.0 | 0.00 | 0.07 | 0.07 | 80 | 992.7 |
| 20260506173025 | 55 | 80 | 2.0 | 12.0 | 0.00 | 0.07 | 0.07 | 81 | 992.9 |
| 20260506171534 | 55 | 344 | 4.0 | 13.0 | 0.00 | 0.07 | 0.07 | 83 | 992.6 |
| 20260506170018 | 55 | 20 | 3.0 | 9.0 | 0.00 | 0.07 | 0.07 | 84 | 993.1 |
| 20260506164522 | 54 | 346 | 3.0 | 11.0 | 0.00 | 0.07 | 0.07 | 84 | 993.3 |
| 20260506163015 | 54 | 42 | 2.0 | 7.0 | 0.00 | 0.07 | 0.07 | 85 | 993.5 |
| 20260506161513 | 54 | 22 | 0.0 | 7.0 | 0.05 | 0.07 | 0.07 | 85 | 993.7 |
| 20260506160016 | 55 | 210 | 0.0 | 8.0 | 0.07 | 0.07 | 0.07 | 86 | 992.4 |
| 20260506154512 | 54 | 10 | 3.0 | 9.0 | 0.07 | 0.07 | 0.07 | 86 | 992.3 |
| 20260506153008 | 54 | 18 | 3.0 | 8.0 | 0.06 | 0.06 | 0.06 | 86 | 993.1 |
| 20260506151505 | 54 | 311 | 0.0 | 4.0 | 0.02 | 0.02 | 0.02 | 82 | 995.0 |
| 20260506150002 | 55 | 55 | 2.0 | 6.0 | 0.00 | 0.00 | 0.00 | 79 | 994.1 |
| 20260506144604 | 55 | 359 | 1.0 | 10.0 | 0.00 | 0.00 | 0.00 | 79 | 993.5 |
| 20260506143058 | 54 | 53 | 2.0 | 8.0 | 0.00 | 0.00 | 0.00 | 79 | 992.1 |
| 20260506141554 | 55 | 301 | 1.0 | 5.0 | 0.00 | 0.00 | 0.00 | 79 | 993.4 |
| 20260506140052 | 54 | 359 | 3.0 | 9.0 | 0.00 | 0.00 | 0.00 | 79 | 993.0 |
| 20260506134548 | 54 | 14 | 2.0 | 7.0 | 0.00 | 0.00 | 0.00 | 79 | 992.6 |
| 20260506133046 | 54 | 1 | 2.0 | 11.0 | 0.00 | 0.00 | 0.00 | 79 | 992.2 |
| 20260506131551 | 54 | 6 | 4.0 | 11.0 | 0.00 | 0.00 | 0.00 | 78 | 992.0 |
| 20260506130041 | 54 | 1 | 1.0 | 5.0 | 0.00 | 0.00 | 0.00 | 79 | 991.8 |
| 20260506124539 | 54 | 295 | 1.0 | 7.0 | 0.00 | 0.00 | 0.00 | 78 | 991.7 |
| 20260506123035 | 55 | 19 | 2.0 | 7.0 | 0.00 | 0.00 | 0.00 | 76 | 991.7 |
| 20260506121534 | 55 | 344 | 2.0 | 6.0 | 0.00 | 0.00 | 0.00 | 75 | 991.5 |
| 20260506120030 | 55 | 336 | 1.0 | 7.0 | 0.00 | 0.00 | 0.00 | 73 | 991.2 |
| 20260506114535 | 56 | 16 | 0.0 | 9.0 | 0.00 | 0.00 | 0.00 | 73 | 991.1 |
| 20260506113023 | 56 | 359 | 3.0 | 10.0 | 0.00 | 0.00 | 0.00 | 73 | 990.8 |
| 20260506111519 | 56 | 359 | 2.0 | 6.0 | 0.00 | 0.00 | 0.00 | 72 | 990.4 |
| 20260506110021 | 56 | 314 | 1.0 | 8.0 | 0.00 | 0.00 | 0.00 | 72 | 990.2 |
| 20260506104514 | 57 | 321 | 3.0 | 6.0 | 0.00 | 0.00 | 0.00 | 72 | 990.0 |
| 20260506103011 | 57 | 84 | 1.0 | 6.0 | 0.00 | 0.00 | 0.00 | 72 | 989.8 |
| 20260506101511 | 57 | 44 | 2.0 | 9.0 | 0.00 | 0.00 | 0.00 | 71 | 989.5 |
| 20260506100016 | 58 | 56 | 1.0 | 6.0 | 0.00 | 0.00 | 0.00 | 71 | 989.2 |
| 20260506094505 | 58 | 39 | 2.0 | 6.0 | 0.00 | 0.00 | 0.00 | 72 | 989.0 |
| 20260506093002 | 58 | 23 | 1.0 | 6.0 | 0.00 | 0.00 | 0.00 | 73 | 988.9 |
| 20260506091502 | 58 | 26 | 2.0 | 7.0 | 0.00 | 0.00 | 0.00 | 73 | 988.8 |
| 20260506090059 | 58 | 26 | 0.0 | 6.0 | 0.00 | 0.00 | 0.00 | 73 | 988.7 |
| 20260506090001 | 58 | 1 | 0.0 | 6.0 | 0.00 | 0.00 | 0.00 | 73 | 988.7 |
| 20260506084604 | 58 | 7 | 3.0 | 7.0 | 0.00 | 0.00 | 0.00 | 73 | 988.7 |
| 20260506083056 | 59 | 21 | 1.0 | 4.0 | 0.00 | 0.00 | 0.00 | 73 | 988.5 |
| 20260506081554 | 59 | 6 | 3.0 | 10.0 | 0.00 | 0.00 | 0.00 | 74 | 988.4 |
| 20260506073047 | 59 | 5 | 3.0 | 10.0 | 0.00 | 0.00 | 0.00 | 73 | 987.7 |
| 20260506071554 | 60 | 65 | 4.0 | 8.0 | 0.00 | 0.00 | 0.00 | 74 | 987.9 |
| 20260506061537 | 61 | 15 | 3.0 | 8.0 | 0.00 | 0.00 | 0.00 | 74 | 987.9 |
| 20260506044533 | 63 | 326 | 2.0 | 10.0 | 0.00 | 0.00 | 0.00 | 74 | 987.8 |
| 20260506043026 | 64 | 355 | 3.0 | 8.0 | 0.00 | 0.00 | 0.00 | 74 | 987.8 |
| 20260506041521 | 65 | 335 | 1.0 | 7.0 | 0.00 | 0.00 | 0.00 | 74 | 987.6 |
| 20260506040019 | 65 | 8 | 2.0 | 10.0 | 0.00 | 0.00 | 0.00 | 74 | 987.5 |
| 20260506034518 | 66 | 335 | 4.0 | 8.0 | 0.00 | 0.00 | 0.00 | 74 | 987.0 |
| 20260506033013 | 67 | 51 | 1.0 | 7.0 | 0.00 | 0.00 | 0.00 | 73 | 986.8 |
| 20260506031516 | 68 | 349 | 2.0 | 7.0 | 0.00 | 0.00 | 0.00 | 72 | 986.6 |
| 20260506030002 | 69 | 1 | 3.0 | 10.0 | 0.00 | 0.00 | 0.00 | 71 | 986.5 |
| 20260506024600 | 69 | 72 | 1.0 | 6.0 | 0.00 | 0.00 | 0.00 | 71 | 986.4 |
| 20260506023054 | 70 | 302 | 1.0 | 6.0 | 0.00 | 0.00 | 0.00 | 70 | 985.9 |
| 20260506021559 | 70 | 49 | 2.0 | 9.0 | 0.00 | 0.00 | 0.00 | 69 | 985.2 |